User: anonymous   Login
Location: Holyhead Bay
(53.3667°N, 4.6667°W)
Time: 23:59:02
(UTC+00:00)
Language:

NOSS 3-3 (A) - Orbit

View from above orbital plane
View from above orbital plane
View from above satellite
View from above satellite

Ground track
Ground track

The orbit data is extracted from the following two-line orbital elements,

1 28537U 05004A   21059.76314476 0.00000000  00000-0  00000-0 0    02
2 28537  63.4278 337.5651 0392089 358.3801   1.6199 13.40817707    00
Epoch (UTC): 28 February 2021 18:18:55
Eccentricity: 0.0392089
inclination: 63.4278°
perigee height: 813 km
apogee height: 1399 km
right ascension of ascending node: 337.5651°
argument of perigee: 358.3801°
revolutions per day: 13.40817707
mean anomaly at epoch: 1.6199°
orbit number at epoch: 0

The dashed part of the orbit path shows where the satellite is in the earth's shadow,  

DLR